This demonstration page uses our WeatherBlox Daily Observations layout. Learn more.

39.51506, -84.39828

Hourly Observations for August 6, 2020

Temp ( °F °C ) Dew Point ( °F °C ) Humidity (%) Winds ( mph kmh ) Pressure ( in mb ) Visibility ( mi km ) Precip ( " mm )
12:15 am 00:15 Clear 58 14.5 57 14 97 97 Calm 30.12 1020 10 16.0934 0 0
12:35 am 00:35 Clear 58 14.5 56 13.6 94 94 Calm 30.12 1020 10 16.0934 0 0
12:55 am 00:55 Clear 58 14.5 56 13.4 93 93 Calm 30.12 1020 10 16.0934 0 0
1:15 am 01:15 Clear 58 14.2 56 13.4 95 95 Calm 30.12 1020 10 16.0934 0 0
1:35 am 01:35 Clear 57 13.7 56 13.1 96 96 Calm 30.12 1020 10 16.0934 0 0
1:55 am 01:55 Clear 56 13.5 55 13 97 97 N 3 6 30.11 1020 10 16.0934 0 0
2:15 am 02:15 Clear 56 13.4 55 12.8 96 96 NNE 3 6 30.11 1020 10 16.0934 0 0
2:35 am 02:35 Clear 57 13.7 55 12.8 94 94 N 3 6 30.11 1020 10 16.0934 0 0
2:55 am 02:55 Partly Cloudy 57 13.7 55 12.8 94 94 Calm 30.11 1020 10 16.0934 0 0
3:15 am 03:15 Partly Cloudy 56 13.3 55 12.6 96 96 Calm 30.12 1020 10 16.0934 0 0
3:35 am 03:35 Cloudy 58 14.5 56 13.3 93 93 Calm 30.11 1020 10 16.0934 0 0
3:55 am 03:55 Mostly Cloudy 58 14.3 56 13.6 96 96 Calm 30.11 1020 10 16.0934 0 0
4:15 am 04:15 Cloudy 58 14.6 56 13.6 94 94 Calm 30.12 1020 10 16.0934 0 0
4:35 am 04:35 Partly Cloudy 58 14.6 56 13.3 92 92 Calm 30.12 1020 10 16.0934 0 0
4:55 am 04:55 Mostly Cloudy 58 14.5 57 13.7 95 95 Calm 30.12 1020 10 16.0934 0 0
5:15 am 05:15 Mostly Cloudy 58 14.6 57 13.7 94 94 Calm 30.11 1020 10 16.0934 0 0
5:35 am 05:35 Partly Cloudy 58 14.3 56 13.2 93 93 NNE 3 6 30.12 1020 10 16.0934 0 0
5:55 am 05:55 Cloudy 58 14.6 56 13.4 93 93 NNE 5 7 30.11 1020 10 16.0934 0 0
6:15 am 06:15 Cloudy 58 14.7 56 13.4 92 92 Calm 30.12 1020 10 16.0934 0 0
6:35 am 06:35 Mostly Cloudy 58 14.6 57 13.7 94 94 Calm 30.12 1020 10 16.0934 0 0
6:55 am 06:55 Mostly Cloudy 58 14.6 56 13.2 91 91 N 3 6 30.13 1020 10 16.0934 0 0
7:15 am 07:15 Partly Cloudy 58 14.4 56 13.6 95 95 Calm 30.13 1020 10 16.0934 0 0
7:35 am 07:35 Sunny 59 15 57 14.1 94 94 Calm 30.13 1020 10 16.0934 0 0
7:55 am 07:55 Partly Cloudy 60 15.3 57 13.9 91 91 Calm 30.14 1021 10 16.0934 0 0
8:15 am 08:15 Partly Cloudy 61 16.2 58 14.3 89 89 Calm 30.13 1020 10 16.0934 0 0
8:35 am 08:35 Sunny 63 17 58 14.6 86 86 Calm 30.13 1020 10 16.0934 0 0
8:55 am 08:55 Partly Cloudy 64 17.9 58 14.4 80 80 Calm 30.13 1020 10 16.0934 0 0
9:15 am 09:15 Mostly Cloudy 65 18.6 58 14.4 77 77 ENE 3 6 30.13 1020 10 16.0934 0 0
9:35 am 09:35 Mostly Cloudy 67 19.2 58 14.6 75 75 NNE 3 6 30.13 1020 10 16.0934 0 0
9:55 am 09:55 Partly Cloudy 68 20 58 14.7 72 72 NE 3 6 30.12 1020 10 16.0934 0 0
10:15 am 10:15 Mostly Cloudy 69 20.5 59 14.8 70 70 E 3 6 30.12 1020 10 16.0934 0 0
10:35 am 10:35 Cloudy 70 21.2 60 15.4 70 70 ENE 3 6 30.13 1020 10 16.0934 0 0
10:55 am 10:55 Cloudy 71 21.7 58 14.7 65 65 E 3 6 30.12 1020 10 16.0934 0 0
11:15 am 11:15 Mostly Cloudy 73 22.7 59 14.9 62 62 ENE 3 6 30.13 1020 10 16.0934 0 0
11:35 am 11:35 Partly Cloudy 74 23.1 58 14.5 59 59 E 5 7 30.13 1020 10 16.0934 0 0
11:55 am 11:55 Partly Cloudy 75 23.7 58 14.6 57 57 NNE 6 9 30.12 1020 10 16.0934 0 0
12:15 pm 12:15 Sunny 75 24.1 58 14.5 55 55 N 3 6 30.12 1020 10 16.0934 0 0
12:35 pm 12:35 Partly Cloudy 76 24.6 57 14 52 52 Calm 30.11 1020 10 16.0934 0 0
12:55 pm 12:55 Sunny 75 24 57 13.8 53 53 E 5 7 30.11 1019 10 16.0934 0 0
1:15 pm 13:15 Mostly Cloudy 77 25 58 14.2 51 51 Calm 30.1 1019 10 16.0934 0 0
1:35 pm 13:35 Cloudy 76 24.5 59 14.9 55 55 NNE 5 7 30.1 1019 10 16.0934 0 0
1:55 pm 13:55 Partly Cloudy 77 25.1 57 13.8 50 50 ENE 7 11 30.09 1019 10 16.0934 0 0
2:15 pm 14:15 Sunny 78 25.8 58 14.4 49 49 N 3 6 30.08 1019 10 16.0934 0 0
2:35 pm 14:35 Cloudy 76 24.5 56 13.6 51 51 Calm 30.08 1019 10 16.0934 0 0
2:55 pm 14:55 Cloudy 76 24.5 58 14.4 53 53 NNW 3 6 30.08 1019 10 16.0934 0 0
3:15 pm 15:15 Cloudy 76 24.4 59 15 56 56 N 3 6 30.08 1019 10 16.0934 0 0
3:35 pm 15:35 Cloudy 76 24.5 58 14.6 54 54 NW 3 6 30.07 1018 10 16.0934 0 0
3:55 pm 15:55 Mostly Cloudy 77 24.8 59 15 55 55 NW 6 9 30.07 1018 10 16.0934 0 0
4:15 pm 16:15 Mostly Cloudy 77 25.1 60 15.8 56 56 NNW 6 9 30.06 1018 10 16.0934 0 0
4:35 pm 16:35 Sunny 77 25.2 60 15.3 54 54 NNE 6 9 30.06 1018 10 16.0934 0 0
4:55 pm 16:55 Cloudy 78 25.3 58 14.6 52 52 Calm 30.06 1018 10 16.0934 0 0
5:15 pm 17:15 Cloudy 76 24.7 58 14.7 54 54 N 3 6 30.06 1018 10 16.0934 0 0
5:35 pm 17:35 Mostly Cloudy 77 25.2 58 14.7 52 52 Calm 30.06 1018 10 16.0934 0 0
5:55 pm 17:55 Mostly Cloudy 76 24.5 59 14.8 55 55 NNW 3 6 30.06 1018 10 16.0934 0 0
6:15 pm 18:15 Cloudy 76 24.7 58 14.6 53 53 NNW 3 6 30.06 1018 10 16.0934 0 0
6:35 pm 18:35 Cloudy 76 24.3 58 14.6 55 55 Calm 30.05 1018 10 16.0934 0 0
6:55 pm 18:55 Cloudy 76 24.2 60 15.3 58 58 NNW 5 7 30.05 1018 10 16.0934 0 0
7:15 pm 19:15 Cloudy 76 24.5 60 15.3 57 57 N 5 7 30.05 1018 10 16.0934 0 0
7:35 pm 19:35 Mostly Cloudy 75 24.1 60 15.3 58 58 Calm 30.06 1018 10 16.0934 0 0
7:55 pm 19:55 Mostly Cloudy 74 23.3 60 15.4 61 61 NNW 3 6 30.07 1018 10 16.0934 0 0
8:15 pm 20:15 Cloudy 73 22.7 60 15.6 64 64 N 3 6 30.07 1018 10 16.0934 0 0
8:35 pm 20:35 Cloudy 72 22 60 15.8 68 68 N 3 6 30.07 1018 10 16.0934 0 0
8:55 pm 20:55 Cloudy 71 21.5 60 15.7 70 70 Calm 30.07 1018 10 16.0934 0 0
9:15 pm 21:15 Cloudy 70 21 61 16.3 75 75 Calm 30.07 1018 10 16.0934 0 0
9:35 pm 21:35 Cloudy 69 20.4 62 16.4 78 78 Calm 30.07 1018 10 16.0934 0 0
9:55 pm 21:55 Cloudy 68 20.1 62 16.8 81 81 Calm 30.07 1018 10 16.0934 0 0
10:15 pm 22:15 Mostly Cloudy 68 20 61 16.3 79 79 Calm 30.08 1019 10 16.0934 0 0
10:35 pm 22:35 Mostly Cloudy 67 19.3 62 16.4 83 83 Calm 30.09 1019 10 16.0934 0 0
10:55 pm 22:55 Clear 66 18.9 61 16.1 84 84 Calm 30.08 1019 10 16.0934 0 0
11:15 pm 23:15 Clear 64 17.7 62 16.4 92 92 Calm 30.09 1019 10 16.0934 0 0
11:35 pm 23:35 Clear 64 18 61 16.1 89 89 Calm 30.09 1019 10 16.0934 0 0
11:55 pm 23:55 Partly Cloudy 65 18.1 60 15.7 86 86 Calm 30.09 1019 10 16.0934 0 0

Powered by AerisWeather